This is the latest recevied weather packets stored in our database for station/object K8FJG-13. If no packets are shown the sender has not sent any weather packets the latest 1 day(s).
| Time | Temp. | Humidity | Pressure | Rain* | Wind** | Luminosity | Snow |
|---|---|---|---|---|---|---|---|
| 1777986439 | 16.11° C | 72% | 961.8 hPa | - | 1.34 m/s, 245° | - | - |
| 1777985835 | 16.11° C | 72% | 961.9 hPa | - | 0.89 m/s, 260° | - | - |
| 1777985232 | 16.11° C | 71% | 961.8 hPa | - | 0.89 m/s, 229° | - | - |
| 1777984629 | 16.11° C | 71% | 961.6 hPa | - | 0.89 m/s, 229° | - | - |
| 1777984026 | 16.11° C | 70% | 961.4 hPa | - | 0.89 m/s, 192° | - | - |
| 1777983422 | 16.11° C | 70% | 961.1 hPa | - | 1.34 m/s, 140° | - | - |
| 1777982819 | 16.67° C | 69% | 961 hPa | - | 1.34 m/s, 204° | - | - |
| 1777982216 | 16.67° C | 69% | 961.2 hPa | - | 1.34 m/s, 180° | - | - |
| 1777981613 | 17.22° C | 66% | 961.1 hPa | - | 1.34 m/s, 235° | - | - |
| 1777981010 | 17.22° C | 66% | 960.9 hPa | - | 0.89 m/s, 203° | - | - |
| 1777980407 | 17.22° C | 66% | 961 hPa | - | 0.89 m/s, 232° | - | - |
| 1777979803 | 17.22° C | 65% | 960.8 hPa | - | 0.89 m/s, 252° | - | - |
| 1777979200 | 17.22° C | 66% | 960.7 hPa | - | 1.34 m/s, 201° | - | - |
| 1777978597 | 17.22° C | 65% | 960.6 hPa | - | 0.89 m/s, 265° | - | - |
| 1777977994 | 17.78° C | 66% | 960.5 hPa | - | 0.89 m/s, 113° | - | - |
| 1777977391 | 17.78° C | 65% | 960.4 hPa | - | 0.89 m/s, 227° | - | - |
| 1777976787 | 17.78° C | 65% | 960.2 hPa | - | 0.89 m/s, 166° | - | - |
| 1777976184 | 17.78° C | 65% | 960 hPa | - | 1.79 m/s, 195° | - | - |
| 1777975581 | 17.78° C | 65% | 960 hPa | - | 1.34 m/s, 207° | - | - |
| 1777974978 | 17.22° C | 66% | 959.7 hPa | - | 0.89 m/s, 250° | - | - |
| 1777974375 | 17.22° C | 67% | 959.7 hPa | - | 0.89 m/s, 228° | - | - |
| 1777973772 | 17.78° C | 66% | 959.5 hPa | - | 0.45 m/s, 193° | - | - |
| 1777973169 | 17.78° C | 65% | 959.3 hPa | - | 0.89 m/s, 188° | - | - |
| 1777972566 | 17.78° C | 65% | 959.3 hPa | - | 0.89 m/s, 227° | - | - |
| 1777971963 | 17.78° C | 64% | 959.3 hPa | - | 1.34 m/s, 208° | - | - |
* Rain since midnight (hover to see other rain measurements)
** Current wind speed in m/s (hover to see current wind gust speed)